Port Weller, Ontario

6:56 AM EST on February 25, 2017 (GMT -0500)
Port Weller

Weather History for CWWZ - March, 2013

Change the Weather History Date:

Sunday, March 10, 2013

  Actual Average (CYSN) Record (CYSN)
Temperature  
Mean Temperature 48 °F -  
Max Temperature 63 °F 34 °F 62 °F (2013)
Min Temperature 33 °F 23 °F 10 °F (2003)
Degree Days  
Heating Degree Days 17    
Moisture  
Dew Point 32 °F    
Average Humidity 65    
Maximum Humidity 97    
Minimum Humidity 17    
Precipitation  
Precipitation 0.00 in - - ()
Sea Level Pressure  
Sea Level Pressure 30.03 in    
Wind  
Wind Speed 5 mph ()    
Max Wind Speed 14 mph    
Max Gust Speed 22 mph    
Averages and records for this station are not official NWS values.
T = Trace of Precipitation, MM = Missing Value Source: Averaged Metar Reports

Daily Weather History Graph

Daily Weather History Graph

Search for Another Location

Airport or City:

Trip Planner

Search our weather history database for the weather conditions in past years. The results will help you decide how hot, cold, wet, or windy it might be!

Date:

Astronomy

Mar. 10, 2013 Rise Set
Actual Time 7:37 AM EDT 7:17 PM EDT
Civil Twilight 7:08 AM EDT 7:45 PM EDT
Nautical Twilight 6:36 AM EDT 8:18 PM EDT
Astronomical Twilight 6:02 AM EDT 8:52 PM EDT
Moon 6:37 AM EDT (3/10) 6:23 PM EDT (3/10)
Length of Visible Light 12h 36m
Length of Day
11h 40m
Waning Crescent, 2% of the Moon is Illuminated
Mar 10
Waning Crescent
Mar 11
New
Mar 19
First Quarter
Mar 27
Full
Apr 3
Last Quarter

Hourly Weather History & Observations

Time (EDT) Temp. Windchill Dew Point Humidity Pressure Visibility Wind Dir Wind Speed Gust Speed Precip Events Conditions
12:00 AM 34.9 °F 27.7 °F 31.3 °F 87% 30.17 in - ENE 9.2 mph - N/A   Unknown
1:00 AM 34 °F - 32 °F 87% 30.17 in - SSW 3.5 mph - -  
1:00 AM 34.0 °F 31.0 °F 31.6 °F 91% 30.17 in - SSW 3.5 mph - N/A   Unknown
3:00 AM 33.8 °F - 31.5 °F 91% 30.14 in - SSW 2.3 mph - N/A   Unknown
4:00 AM 33.8 °F - 31.3 °F 90% 30.11 in - Calm Calm - N/A   Unknown
5:00 AM 35 °F - 34 °F 95% 30.12 in - West 5.8 mph - -  
5:00 AM 35.2 °F 30.3 °F 34.2 °F 96% 30.12 in - West 5.8 mph - N/A   Unknown
6:00 AM 35.4 °F - 34.5 °F 97% 30.10 in - SW 1.2 mph - N/A   Unknown
7:00 AM 34.9 °F 30.8 °F 34.0 °F 97% 30.08 in - SE 4.6 mph - N/A   Unknown
8:00 AM 35 °F - 34 °F 92% 30.07 in - ESE 1.2 mph - -  
8:00 AM 34.9 °F - 33.6 °F 95% 30.07 in - ESE 1.2 mph - N/A   Unknown
9:00 AM 36.7 °F - 34.2 °F 91% 30.08 in - West 1.2 mph - N/A   Unknown
10:00 AM 37.0 °F - 34.9 °F 92% 30.08 in - West 1.2 mph - N/A   Unknown
11:00 AM 39 °F - 34 °F 74% 30.05 in - ENE 3.5 mph - -  
11:00 AM 39.0 °F 36.8 °F 33.6 °F 81% 30.05 in - ENE 3.5 mph - N/A   Unknown
12:00 PM 48.2 °F - 30.0 °F 49% 30.05 in - West 4.6 mph - N/A   Unknown
1:00 PM 56.5 °F - 25.5 °F 30% 30.03 in - South 11.5 mph - N/A   Unknown
2:00 PM 60 °F - 27 °F 17% 29.99 in - South 13.8 mph - -  
2:00 PM 60.1 °F - 27.3 °F 29% 29.99 in - South 13.8 mph 21.9 mph N/A   Unknown
3:00 PM 60.6 °F - 30.4 °F 32% 29.96 in - SSW 10.4 mph - N/A   Unknown
4:00 PM 63.3 °F - 31.1 °F 30% 29.94 in - SSW 8.1 mph - N/A   Unknown
5:00 PM 57 °F - 31 °F 25% 29.96 in - SSW 5.8 mph - -  
5:00 PM 57.4 °F - 31.1 °F 37% 29.96 in - SSW 5.8 mph - N/A   Unknown
6:00 PM 61.2 °F - 29.8 °F 31% 29.93 in - South 6.9 mph - N/A   Unknown
7:00 PM 43.9 °F 42.3 °F 34.7 °F 70% 29.96 in - North 3.5 mph - N/A   Unknown
8:00 PM 44 °F - 34 °F 58% 29.96 in - East 6.9 mph - -  
8:00 PM 43.9 °F 39.9 °F 34.0 °F 68% 29.96 in - East 6.9 mph - N/A   Unknown
9:00 PM 50.4 °F - 34.7 °F 55% 29.96 in - SSE 5.8 mph - N/A   Unknown
10:00 PM 46.9 °F - 34.2 °F 61% 29.96 in - East 2.3 mph - N/A   Unknown
11:00 PM 52 °F - 31 °F 31% 29.93 in - SSE 8.1 mph - -  
11:00 PM 51.6 °F - 30.6 °F 45% 29.93 in - SSE 8.1 mph - N/A   Unknown
12:00 AM 52.2 °F - 29.3 °F 41% 29.93 in - South 9.2 mph - N/A   Unknown